Starlink 11109

operational
NORAD ID: 60306 Int'l Des: 2024-133 Owner: SPXS Country: US Constellation: starlink
LEOCIRCULAR

关于 Starlink 11109

正在加载描述...

实时位置

正在加载3D地球...

即将过境

高度历史

Altitude vs Time

uPlot chart will show altitude changes over time

两行轨道根数

1 60306U 24133F 25258.46303975 .00000386 00000-0 80436-5 0 9990
2 60306 53.1576 289.9612 0000931 84.4943 275.6181 15.69705636 66219
Epoch: Sep 15, 2025 • Age: 18 hours

当前状态

高度 376.6 km
速度 7.68 km/s
星下点 -47.53°S, 90.86°E
发射日期 Jul 28, 2024
运行时间 1.1 years
类型 internet

技术详情

分类 Payload
质量 960.00 kg
干质量 910.00 kg
总质量 960.00 kg
长度 0.30 m
直径 4.10 m
跨度 29.00 m
形状 Box + pan
制造商 SPXS
平台类型 Starlink V2MD
阶段状态 In Orbit
所有者/国家 SPXS/US

大型星座

Loading constellations...